Hourly Weather Junagadh

Today, 30 November, Monday

Time Temperature Precipitation Wind Pressure Humidity
00:00 +23°C° 0 mm 0 mps 754 mmHg 73%
01:00 +23°C° 0 mm 0 mps 753 mmHg 74%
02:00 +22°C° 0 mm 0 mps 753 mmHg 75%
03:00 +24°C° 0 mm 1 mps 753 mmHg 75%
04:00 +24°C° 0 mm 1 mps 753 mmHg 74%
05:00 +24°C° 0 mm 1 mps 753 mmHg 74%
06:00 +25°C° 0 mm 1 mps 753 mmHg 69%
07:00 +26°C° 0 mm 1 mps 754 mmHg 64%
08:00 +26°C° 0 mm 2 mps 754 mmHg 59%
09:00 +29°C° 0 mm 2 mps 754 mmHg 51%
10:00 +31°C° 0 mm 2 mps 755 mmHg 43%
11:00 +34°C° 0 mm 2 mps 755 mmHg 35%
12:00 +35°C° 0 mm 2 mps 754 mmHg 32%
13:00 +35°C° 0 mm 1 mps 753 mmHg 29%
14:00 +34°C° 0 mm 0 mps 752 mmHg 26%
15:00 +35°C° 0 mm 1 mps 752 mmHg 27%
16:00 +35°C° 0 mm 1 mps 752 mmHg 29%
17:00 +35°C° 0 mm 2 mps 752 mmHg 31%
18:00 +32°C° 0 mm 2 mps 753 mmHg 38%
19:00 +30°C° 0 mm 2 mps 753 mmHg 46%
20:00 +27°C° 0 mm 2 mps 754 mmHg 54%
21:00 +27°C° 0 mm 2 mps 754 mmHg 55%
22:00 +26°C° 0 mm 2 mps 754 mmHg 56%
23:00 +26°C° 0 mm 2 mps 754 mmHg 57%

Tomorrow, 1 December, Tuesday

Time Temperature Precipitation Wind Pressure Humidity
00:00 +25°C° 0 mm 1 mps 754 mmHg 57%
01:00 +25°C° 0 mm 1 mps 754 mmHg 58%
02:00 +25°C° 0 mm 1 mps 753 mmHg 58%
03:00 +25°C° 0 mm 1 mps 753 mmHg 58%
04:00 +25°C° 0 mm 2 mps 753 mmHg 58%
05:00 +25°C° 0 mm 2 mps 753 mmHg 58%
06:00 +25°C° 0 mm 2 mps 753 mmHg 54%
07:00 +26°C° 0 mm 2 mps 754 mmHg 50%
08:00 +27°C° 0 mm 3 mps 755 mmHg 46%
09:00 +30°C° 0 mm 3 mps 755 mmHg 42%
10:00 +33°C° 0 mm 3 mps 755 mmHg 38%
11:00 +35°C° 0 mm 3 mps 755 mmHg 34%
12:00 +36°C° 0 mm 2 mps 754 mmHg 32%
13:00 +37°C° 0 mm 2 mps 753 mmHg 30%
14:00 +37°C° 0 mm 1 mps 752 mmHg 28%
15:00 +36°C° 0 mm 1 mps 752 mmHg 29%
16:00 +36°C° 0 mm 1 mps 752 mmHg 29%
17:00 +35°C° 0 mm 1 mps 752 mmHg 30%
18:00 +34°C° 0 mm 2 mps 752 mmHg 36%
19:00 +31°C° 0 mm 2 mps 753 mmHg 42%
20:00 +28°C° 0 mm 2 mps 753 mmHg 48%
21:00 +28°C° 0 mm 2 mps 753 mmHg 49%
22:00 +27°C° 0 mm 2 mps 754 mmHg 50%
23:00 +26°C° 0 mm 1 mps 754 mmHg 52%

Day after tomorrow, 2 December, Wednesday

Time Temperature Precipitation Wind Pressure Humidity
00:00 +26°C° 0 mm 2 mps 753 mmHg 51%
01:00 +26°C° 0 mm 2 mps 753 mmHg 50%
02:00 +26°C° 0 mm 2 mps 753 mmHg 49%
03:00 +26°C° 0 mm 2 mps 753 mmHg 47%
04:00 +25°C° 0 mm 2 mps 753 mmHg 45%
05:00 +25°C° 0 mm 2 mps 753 mmHg 43%
06:00 +26°C° 0 mm 2 mps 753 mmHg 42%
07:00 +27°C° 0 mm 3 mps 754 mmHg 41%
08:00 +27°C° 0 mm 3 mps 754 mmHg 40%
09:00 +30°C° 0 mm 3 mps 754 mmHg 35%
10:00 +33°C° 0 mm 3 mps 754 mmHg 30%
11:00 +36°C° 0 mm 4 mps 754 mmHg 24%
12:00 +36°C° 0 mm 3 mps 754 mmHg 23%
13:00 +37°C° 0 mm 3 mps 753 mmHg 22%
14:00 +38°C° 0 mm 3 mps 752 mmHg 20%
15:00 +37°C° 0 mm 3 mps 752 mmHg 22%
16:00 +36°C° 0 mm 3 mps 751 mmHg 23%
17:00 +35°C° 0 mm 3 mps 751 mmHg 24%
18:00 +33°C° 0 mm 3 mps 752 mmHg 27%
19:00 +30°C° 0 mm 3 mps 752 mmHg 30%
20:00 +28°C° 0 mm 3 mps 753 mmHg 33%
21:00 +27°C° 0 mm 3 mps 753 mmHg 34%
22:00 +26°C° 0 mm 2 mps 753 mmHg 35%
23:00 +25°C° 0 mm 1 mps 753 mmHg 36%

3 December, Thursday

Time Temperature Precipitation Wind Pressure Humidity
00:00 +25°C° 0 mm 1 mps 752 mmHg 36%
01:00 +25°C° 0 mm 1 mps 752 mmHg 36%
02:00 +24°C° 0 mm 1 mps 752 mmHg 36%
03:00 +24°C° 0 mm 1 mps 752 mmHg 35%
04:00 +24°C° 0 mm 1 mps 752 mmHg 34%
05:00 +24°C° 0 mm 1 mps 751 mmHg 34%
06:00 +25°C° 0 mm 2 mps 752 mmHg 32%
07:00 +26°C° 0 mm 2 mps 753 mmHg 30%
08:00 +27°C° 0 mm 2 mps 754 mmHg 28%
09:00 +29°C° 0 mm 2 mps 754 mmHg 23%
10:00 +31°C° 0 mm 2 mps 754 mmHg 19%
11:00 +35°C° 0 mm 2 mps 754 mmHg 15%
12:00 +36°C° 0 mm 3 mps 753 mmHg 15%
13:00 +36°C° 0 mm 3 mps 752 mmHg 15%
14:00 +37°C° 0 mm 3 mps 751 mmHg 14%
15:00 +36°C° 0 mm 3 mps 751 mmHg 15%
16:00 +35°C° 0 mm 3 mps 751 mmHg 15%
17:00 +34°C° 0 mm 4 mps 751 mmHg 16%
18:00 +31°C° 0 mm 3 mps 751 mmHg 16%
19:00 +29°C° 0 mm 3 mps 752 mmHg 17%
20:00 +26°C° 0 mm 3 mps 752 mmHg 18%
21:00 +25°C° 0 mm 3 mps 752 mmHg 22%
22:00 +24°C° 0 mm 2 mps 752 mmHg 26%
23:00 +23°C° 0 mm 2 mps 752 mmHg 30%

4 December, Friday

Time Temperature Precipitation Wind Pressure Humidity
00:00 +23°C° 0 mm 2 mps 752 mmHg 32%
01:00 +21°C° 0 mm 2 mps 751 mmHg 33%
02:00 +22°C° 0 mm 1 mps 751 mmHg 35%
03:00 +22°C° 0 mm 1 mps 751 mmHg 35%
04:00 +22°C° 0 mm 1 mps 751 mmHg 35%
05:00 +21°C° 0 mm 1 mps 751 mmHg 36%
06:00 +23°C° 0 mm 1 mps 751 mmHg 35%
07:00 +24°C° 0 mm 1 mps 752 mmHg 34%
08:00 +25°C° 0 mm 1 mps 753 mmHg 34%
09:00 +28°C° 0 mm 1 mps 753 mmHg 28%
10:00 +30°C° 0 mm 1 mps 753 mmHg 23%
11:00 +33°C° 0 mm 1 mps 753 mmHg 17%
12:00 +34°C° 0 mm 1 mps 752 mmHg 16%
13:00 +35°C° 0 mm 1 mps 751 mmHg 15%
14:00 +36°C° 0 mm 1 mps 751 mmHg 13%
15:00 +34°C° 0 mm 1 mps 751 mmHg 16%
16:00 +34°C° 0 mm 2 mps 751 mmHg 18%
17:00 +32°C° 0 mm 2 mps 751 mmHg 21%
18:00 +30°C° 0 mm 2 mps 751 mmHg 28%
19:00 +27°C° 0 mm 2 mps 751 mmHg 36%
20:00 +25°C° 0 mm 2 mps 752 mmHg 43%
21:00 +24°C° 0 mm 2 mps 752 mmHg 43%
22:00 +24°C° 0 mm 2 mps 752 mmHg 43%
23:00 +23°C° 0 mm 2 mps 752 mmHg 42%

5 December, Saturday

Time Temperature Precipitation Wind Pressure Humidity
00:00 +23°C° 0 mm 2 mps 751 mmHg 46%
01:00 +21°C° 0 mm 2 mps 751 mmHg 49%
02:00 +21°C° 0 mm 2 mps 751 mmHg 53%
03:00 +20°C° 0 mm 2 mps 751 mmHg 55%
04:00 +20°C° 0 mm 2 mps 751 mmHg 57%
05:00 +20°C° 0 mm 2 mps 751 mmHg 60%
06:00 +21°C° 0 mm 2 mps 751 mmHg 56%
07:00 +23°C° 0 mm 2 mps 752 mmHg 51%
08:00 +25°C° 0 mm 2 mps 752 mmHg 47%
09:00 +27°C° 0 mm 2 mps 752 mmHg 39%
10:00 +30°C° 0 mm 2 mps 752 mmHg 31%
11:00 +34°C° 0 mm 2 mps 752 mmHg 22%
12:00 +35°C° 0 mm 2 mps 752 mmHg 20%
13:00 +35°C° 0 mm 1 mps 751 mmHg 18%
14:00 +34°C° 0 mm 0 mps 750 mmHg 17%
15:00 +35°C° 0 mm 1 mps 750 mmHg 19%
16:00 +34°C° 0 mm 1 mps 750 mmHg 21%
17:00 +33°C° 0 mm 1 mps 750 mmHg 23%
18:00 +30°C° 0 mm 1 mps 750 mmHg 31%
19:00 +27°C° 0 mm 1 mps 751 mmHg 38%
20:00 +25°C° 0 mm 1 mps 751 mmHg 46%
21:00 +24°C° 0 mm 1 mps 751 mmHg 49%
22:00 +24°C° 0 mm 1 mps 751 mmHg 51%
23:00 +23°C° 0 mm 1 mps 751 mmHg 54%
Show more